PREAS SWKO-SWLB

Flight info

Callsign PREAS
Flight time 1h 28m
Altitude 2500
Route DCT 0431S06316W 0545S06342W 0633S06410W 0656S06426W 0709S06431W DCT
Aircraft BE33/L-SCG/S

Departure

Time 2026-05-07 11:15
Airport Danilson Municipal Airport (SWKO)

Arrival

Time 2026-05-07 12:44
Airport Lábrea Airport (SWLB)
Time Latitude Longitude Altitude Speed Heading
2026-05-07 11:09 -4.13201 -63.13512 147 ft 0 kts 358°
2026-05-07 11:11 -4.13215 -63.13496 147 ft 6 kts 155°
2026-05-07 11:11 -4.13284 -63.13486 147 ft 10 kts 179°
2026-05-07 11:12 -4.13345 -63.13487 147 ft 0 kts 178°
2026-05-07 11:12 -4.13388 -63.13472 147 ft 12 kts 128°
2026-05-07 11:13 -4.13404 -63.13502 148 ft 10 kts 265°
2026-05-07 11:13 -4.13403 -63.13620 145 ft 22 kts 270°
2026-05-07 11:13 -4.13404 -63.13796 141 ft 28 kts 269°
2026-05-07 11:13 -4.13426 -63.13927 142 ft 11 kts 235°
2026-05-07 11:14 -4.13406 -63.13950 143 ft 2 kts 45°
2026-05-07 11:14 -4.13404 -63.13946 143 ft 0 kts 82°
2026-05-07 11:14 -4.13402 -63.13874 141 ft 31 kts 90°
2026-05-07 11:15 -4.13402 -63.13472 152 ft 84 kts 88°
2026-05-07 11:15 -4.13394 -63.12820 327 ft 100 kts 89°
2026-05-07 11:15 -4.13372 -63.12117 713 ft 96 kts 86°
2026-05-07 11:15 -4.13354 -63.11426 1048 ft 106 kts 86°
2026-05-07 11:16 -4.13326 -63.10664 1374 ft 113 kts 85°
2026-05-07 11:16 -4.13290 -63.09859 1709 ft 117 kts 85°
2026-05-07 11:16 -4.13272 -63.09034 2043 ft 120 kts 98°
2026-05-07 11:16 -4.13809 -63.08432 2376 ft 125 kts 162°
2026-05-07 11:17 -4.14683 -63.08605 2532 ft 142 kts 205°
2026-05-07 11:17 -4.15624 -63.09087 2538 ft 160 kts 206°
2026-05-07 11:17 -4.16647 -63.09611 2543 ft 169 kts 206°
2026-05-07 11:17 -4.17715 -63.10158 2549 ft 175 kts 206°
2026-05-07 11:18 -4.18815 -63.10717 2551 ft 178 kts 206°
2026-05-07 11:18 -4.19900 -63.11270 2551 ft 172 kts 206°
2026-05-07 11:18 -4.20948 -63.11806 2549 ft 167 kts 206°
2026-05-07 11:18 -4.21975 -63.12332 2550 ft 165 kts 206°
2026-05-07 11:19 -4.22993 -63.12852 2549 ft 164 kts 206°
2026-05-07 11:19 -4.24007 -63.13370 2549 ft 163 kts 206°
2026-05-07 11:19 -4.25016 -63.13886 2549 ft 163 kts 206°
2026-05-07 11:19 -4.26027 -63.14402 2549 ft 163 kts 206°
2026-05-07 11:20 -4.27036 -63.14920 2550 ft 163 kts 206°
2026-05-07 11:20 -4.28044 -63.15439 2549 ft 163 kts 206°
2026-05-07 11:20 -4.29049 -63.15957 2549 ft 163 kts 206°
2026-05-07 11:20 -4.30055 -63.16474 2547 ft 162 kts 206°
2026-05-07 11:21 -4.31056 -63.16989 2546 ft 162 kts 206°
2026-05-07 11:21 -4.32059 -63.17507 2545 ft 162 kts 206°
2026-05-07 11:21 -4.33063 -63.18026 2546 ft 163 kts 206°
2026-05-07 11:21 -4.34069 -63.18547 2545 ft 163 kts 206°
2026-05-07 11:22 -4.35061 -63.19057 2547 ft 162 kts 206°
2026-05-07 11:22 -4.36062 -63.19573 2548 ft 162 kts 206°
2026-05-07 11:22 -4.37067 -63.20090 2548 ft 162 kts 206°
2026-05-07 11:22 -4.38074 -63.20608 2548 ft 163 kts 206°
2026-05-07 11:23 -4.39080 -63.21128 2548 ft 163 kts 206°
2026-05-07 11:23 -4.40086 -63.21647 2548 ft 163 kts 206°
2026-05-07 11:23 -4.41092 -63.22164 2547 ft 163 kts 206°
2026-05-07 11:23 -4.42098 -63.22680 2548 ft 162 kts 206°
2026-05-07 11:24 -4.43100 -63.23193 2548 ft 161 kts 206°
2026-05-07 11:24 -4.44100 -63.23700 2548 ft 161 kts 206°
2026-05-07 11:24 -4.45100 -63.24205 2548 ft 161 kts 206°
2026-05-07 11:24 -4.46099 -63.24710 2547 ft 160 kts 205°
2026-05-07 11:25 -4.47136 -63.25097 2543 ft 159 kts 195°
2026-05-07 11:25 -4.48198 -63.25408 2544 ft 159 kts 195°
2026-05-07 11:25 -4.49265 -63.25721 2544 ft 160 kts 195°
2026-05-07 11:25 -4.50335 -63.26034 2545 ft 160 kts 195°
2026-05-07 11:26 -4.51404 -63.26350 2547 ft 160 kts 195°
2026-05-07 11:26 -4.52477 -63.26664 2546 ft 161 kts 195°
2026-05-07 11:26 -4.53549 -63.26980 2548 ft 161 kts 195°
2026-05-07 11:26 -4.54622 -63.27296 2548 ft 161 kts 195°
2026-05-07 11:27 -4.55697 -63.27610 2547 ft 161 kts 195°
2026-05-07 11:27 -4.56772 -63.27927 2548 ft 161 kts 195°
2026-05-07 11:27 -4.57847 -63.28241 2548 ft 161 kts 195°
2026-05-07 11:27 -4.58921 -63.28555 2546 ft 161 kts 195°
2026-05-07 11:28 -4.59991 -63.28867 2548 ft 160 kts 195°
2026-05-07 11:28 -4.61058 -63.29178 2546 ft 159 kts 195°
2026-05-07 11:28 -4.62124 -63.29488 2546 ft 159 kts 195°
2026-05-07 11:28 -4.63184 -63.29796 2551 ft 159 kts 195°
2026-05-07 11:29 -4.64250 -63.30107 2551 ft 160 kts 195°
2026-05-07 11:29 -4.65302 -63.30415 2551 ft 160 kts 195°
2026-05-07 11:29 -4.66369 -63.30727 2551 ft 160 kts 195°
2026-05-07 11:29 -4.67443 -63.31038 2552 ft 161 kts 195°
2026-05-07 11:30 -4.68519 -63.31354 2551 ft 162 kts 195°
2026-05-07 11:30 -4.69608 -63.31674 2550 ft 164 kts 195°
2026-05-07 11:30 -4.70700 -63.31997 2550 ft 164 kts 195°
2026-05-07 11:30 -4.71789 -63.32316 2549 ft 163 kts 195°
2026-05-07 11:31 -4.72873 -63.32632 2546 ft 162 kts 195°
2026-05-07 11:31 -4.73950 -63.32946 2545 ft 161 kts 195°
2026-05-07 11:31 -4.75025 -63.33260 2546 ft 160 kts 195°
2026-05-07 11:31 -4.76098 -63.33570 2545 ft 161 kts 195°
2026-05-07 11:32 -4.78245 -63.34185 2550 ft 160 kts 195°
2026-05-07 11:32 -4.79320 -63.34487 2548 ft 160 kts 195°
2026-05-07 11:32 -4.80392 -63.34789 2547 ft 160 kts 195°
2026-05-07 11:33 -4.81462 -63.35086 2548 ft 160 kts 195°
2026-05-07 11:33 -4.82530 -63.35386 2548 ft 159 kts 195°
2026-05-07 11:33 -4.83594 -63.35685 2548 ft 159 kts 195°
2026-05-07 11:33 -4.84658 -63.35982 2546 ft 159 kts 195°
2026-05-07 11:34 -4.85726 -63.36281 2549 ft 160 kts 195°
2026-05-07 11:34 -4.86799 -63.36583 2549 ft 160 kts 195°
2026-05-07 11:34 -4.87875 -63.36885 2548 ft 160 kts 195°
2026-05-07 11:34 -4.88948 -63.37185 2548 ft 160 kts 195°
2026-05-07 11:35 -4.90014 -63.37483 2546 ft 159 kts 195°
2026-05-07 11:35 -4.90718 -63.37680 2547 ft 159 kts 195°
2026-05-07 11:35 -4.91784 -63.37979 2547 ft 159 kts 195°
2026-05-07 11:35 -4.92850 -63.38279 2546 ft 159 kts 195°
2026-05-07 11:36 -4.93917 -63.38582 2552 ft 160 kts 195°
2026-05-07 11:36 -4.94991 -63.38887 2550 ft 161 kts 195°
2026-05-07 11:36 -4.96064 -63.39191 2550 ft 160 kts 195°
2026-05-07 11:36 -4.97135 -63.39495 2548 ft 160 kts 195°
2026-05-07 11:37 -4.98201 -63.39796 2547 ft 159 kts 195°
2026-05-07 11:37 -4.99265 -63.40092 2547 ft 158 kts 195°
2026-05-07 11:37 -5.00327 -63.40390 2548 ft 159 kts 195°
2026-05-07 11:37 -5.01389 -63.40718 2547 ft 160 kts 198°
2026-05-07 11:38 -5.02445 -63.41075 2548 ft 160 kts 198°
2026-05-07 11:38 -5.03501 -63.41435 2547 ft 160 kts 198°
2026-05-07 11:38 -5.04556 -63.41794 2547 ft 160 kts 198°
2026-05-07 11:38 -5.05607 -63.42152 2544 ft 159 kts 198°
2026-05-07 11:39 -5.06655 -63.42506 2546 ft 159 kts 198°
2026-05-07 11:39 -5.07702 -63.42858 2546 ft 158 kts 198°
2026-05-07 11:39 -5.08750 -63.43211 2547 ft 158 kts 198°
2026-05-07 11:39 -5.09795 -63.43568 2546 ft 159 kts 197°
2026-05-07 11:40 -5.10839 -63.43935 2543 ft 159 kts 198°
2026-05-07 11:40 -5.11884 -63.44287 2545 ft 159 kts 197°
2026-05-07 11:40 -5.12936 -63.44628 2545 ft 160 kts 197°
2026-05-07 11:40 -5.13996 -63.44970 2546 ft 160 kts 197°
2026-05-07 11:41 -5.15055 -63.45309 2546 ft 160 kts 197°
2026-05-07 11:41 -5.16113 -63.45648 2548 ft 160 kts 197°
2026-05-07 11:41 -5.17175 -63.45987 2546 ft 160 kts 197°
2026-05-07 11:41 -5.18232 -63.46326 2546 ft 159 kts 197°
2026-05-07 11:42 -5.19292 -63.46668 2547 ft 160 kts 197°
2026-05-07 11:42 -5.20354 -63.47010 2546 ft 161 kts 197°
2026-05-07 11:42 -5.21417 -63.47352 2546 ft 160 kts 197°
2026-05-07 11:42 -5.22477 -63.47693 2546 ft 160 kts 197°
2026-05-07 11:43 -5.23537 -63.48036 2547 ft 159 kts 197°
2026-05-07 11:43 -5.24589 -63.48376 2547 ft 159 kts 197°
2026-05-07 11:43 -5.25631 -63.48709 2547 ft 159 kts 197°
2026-05-07 11:43 -5.26688 -63.49047 2549 ft 160 kts 197°
2026-05-07 11:44 -5.27743 -63.49415 2549 ft 161 kts 201°
2026-05-07 11:44 -5.28772 -63.49852 2546 ft 160 kts 204°
2026-05-07 11:44 -5.29789 -63.50315 2546 ft 161 kts 204°
2026-05-07 11:44 -5.30803 -63.50781 2546 ft 160 kts 204°
2026-05-07 11:45 -5.31810 -63.51245 2544 ft 159 kts 204°
2026-05-07 11:45 -5.32819 -63.51707 2542 ft 159 kts 204°
2026-05-07 11:45 -5.33824 -63.52167 2543 ft 159 kts 204°
2026-05-07 11:45 -5.34833 -63.52628 2546 ft 160 kts 204°
2026-05-07 11:46 -5.35842 -63.53099 2545 ft 160 kts 206°
2026-05-07 11:46 -5.36838 -63.53596 2546 ft 160 kts 206°
2026-05-07 11:46 -5.37831 -63.54098 2545 ft 160 kts 206°
2026-05-07 11:46 -5.38824 -63.54599 2547 ft 160 kts 206°
2026-05-07 11:47 -5.39818 -63.55099 2548 ft 160 kts 206°
2026-05-07 11:47 -5.40815 -63.55598 2546 ft 161 kts 206°
2026-05-07 11:47 -5.41814 -63.56095 2547 ft 160 kts 206°
2026-05-07 11:47 -5.42810 -63.56595 2548 ft 160 kts 206°
2026-05-07 11:48 -5.43807 -63.57095 2545 ft 160 kts 206°
2026-05-07 11:48 -5.44794 -63.57592 2546 ft 160 kts 206°
2026-05-07 11:48 -5.45787 -63.58093 2544 ft 160 kts 206°
2026-05-07 11:48 -5.46778 -63.58592 2545 ft 159 kts 206°
2026-05-07 11:49 -5.47764 -63.59088 2547 ft 159 kts 206°
2026-05-07 11:49 -5.48757 -63.59591 2547 ft 160 kts 206°
2026-05-07 11:49 -5.49752 -63.60092 2546 ft 160 kts 206°
2026-05-07 11:49 -5.50751 -63.60598 2549 ft 161 kts 206°
2026-05-07 11:50 -5.51739 -63.61095 2547 ft 161 kts 206°
2026-05-07 11:50 -5.52742 -63.61597 2546 ft 161 kts 206°
2026-05-07 11:50 -5.53742 -63.62101 2548 ft 161 kts 206°
2026-05-07 11:50 -5.54739 -63.62602 2547 ft 160 kts 206°
2026-05-07 11:51 -5.55732 -63.63102 2546 ft 160 kts 206°
2026-05-07 11:51 -5.56727 -63.63609 2549 ft 161 kts 206°
2026-05-07 11:51 -5.57728 -63.64111 2547 ft 161 kts 206°
2026-05-07 11:51 -5.58729 -63.64615 2548 ft 161 kts 206°
2026-05-07 11:52 -5.59731 -63.65122 2543 ft 161 kts 206°
2026-05-07 11:52 -5.60730 -63.65627 2542 ft 161 kts 206°
2026-05-07 11:52 -5.61725 -63.66133 2544 ft 160 kts 206°
2026-05-07 11:52 -5.62720 -63.66641 2547 ft 161 kts 206°
2026-05-07 11:53 -5.63720 -63.67145 2544 ft 161 kts 206°
2026-05-07 11:53 -5.64719 -63.67647 2545 ft 161 kts 206°
2026-05-07 11:53 -5.65721 -63.68149 2544 ft 161 kts 206°
2026-05-07 11:53 -5.66720 -63.68652 2544 ft 160 kts 206°
2026-05-07 11:54 -5.67716 -63.69154 2541 ft 160 kts 206°
2026-05-07 11:54 -5.68709 -63.69660 2542 ft 160 kts 206°
2026-05-07 11:54 -5.69701 -63.70163 2543 ft 160 kts 206°
2026-05-07 11:54 -5.70697 -63.70670 2546 ft 161 kts 206°
2026-05-07 11:55 -5.71699 -63.71179 2544 ft 162 kts 206°
2026-05-07 11:55 -5.72703 -63.71688 2545 ft 162 kts 206°
2026-05-07 11:55 -5.73705 -63.72198 2544 ft 162 kts 206°
2026-05-07 11:55 -5.74708 -63.72707 2544 ft 161 kts 206°
2026-05-07 11:56 -5.75708 -63.73212 2545 ft 160 kts 206°
2026-05-07 11:56 -5.76702 -63.73717 2545 ft 160 kts 206°
2026-05-07 11:56 -5.77697 -63.74221 2551 ft 160 kts 206°
2026-05-07 11:56 -5.78700 -63.74721 2550 ft 161 kts 206°
2026-05-07 11:57 -5.79704 -63.75220 2552 ft 161 kts 206°
2026-05-07 11:57 -5.80711 -63.75723 2550 ft 162 kts 206°
2026-05-07 11:57 -5.81719 -63.76227 2550 ft 162 kts 206°
2026-05-07 11:57 -5.82727 -63.76734 2551 ft 162 kts 206°
2026-05-07 11:58 -5.83732 -63.77240 2553 ft 162 kts 206°
2026-05-07 11:58 -5.84727 -63.77745 2551 ft 162 kts 206°
2026-05-07 11:58 -5.85733 -63.78256 2550 ft 162 kts 206°
2026-05-07 11:58 -5.86734 -63.78761 2548 ft 160 kts 206°
2026-05-07 11:59 -5.87729 -63.79267 2547 ft 160 kts 206°
2026-05-07 11:59 -5.88724 -63.79768 2549 ft 160 kts 206°
2026-05-07 11:59 -5.89721 -63.80274 2550 ft 161 kts 207°
2026-05-07 11:59 -5.90721 -63.80778 2547 ft 160 kts 206°
2026-05-07 12:00 -5.91714 -63.81277 2546 ft 160 kts 206°
2026-05-07 12:00 -5.92712 -63.81780 2546 ft 161 kts 206°
2026-05-07 12:00 -5.93691 -63.82272 2549 ft 162 kts 207°
2026-05-07 12:00 -5.94699 -63.82776 2550 ft 162 kts 206°
2026-05-07 12:01 -5.95708 -63.83285 2550 ft 162 kts 206°
2026-05-07 12:01 -5.96719 -63.83787 2551 ft 162 kts 206°
2026-05-07 12:01 -5.97730 -63.84292 2552 ft 163 kts 206°
2026-05-07 12:01 -5.98745 -63.84799 2551 ft 163 kts 206°
2026-05-07 12:02 -5.99759 -63.85305 2553 ft 163 kts 206°
2026-05-07 12:02 -6.00774 -63.85817 2551 ft 163 kts 207°
2026-05-07 12:02 -6.01786 -63.86327 2549 ft 162 kts 206°
2026-05-07 12:02 -6.02792 -63.86834 2549 ft 162 kts 206°
2026-05-07 12:03 -6.03796 -63.87343 2549 ft 162 kts 206°
2026-05-07 12:03 -6.04801 -63.87852 2550 ft 162 kts 206°
2026-05-07 12:03 -6.05807 -63.88359 2549 ft 162 kts 206°
2026-05-07 12:03 -6.06810 -63.88869 2549 ft 162 kts 206°
2026-05-07 12:04 -6.07808 -63.89386 2549 ft 161 kts 209°
2026-05-07 12:04 -6.08754 -63.89960 2548 ft 161 kts 212°
2026-05-07 12:04 -6.09713 -63.90543 2549 ft 161 kts 211°
2026-05-07 12:04 -6.10683 -63.91137 2550 ft 162 kts 211°
2026-05-07 12:05 -6.11633 -63.91720 2548 ft 162 kts 211°
2026-05-07 12:05 -6.12577 -63.92305 2549 ft 162 kts 212°
2026-05-07 12:05 -6.13538 -63.92893 2547 ft 161 kts 211°
2026-05-07 12:05 -6.14495 -63.93483 2547 ft 162 kts 211°
2026-05-07 12:06 -6.15455 -63.94070 2551 ft 161 kts 212°
2026-05-07 12:06 -6.16417 -63.94651 2550 ft 162 kts 212°
2026-05-07 12:06 -6.17382 -63.95229 2550 ft 162 kts 212°
2026-05-07 12:06 -6.18348 -63.95811 2550 ft 162 kts 212°
2026-05-07 12:07 -6.19312 -63.96394 2547 ft 161 kts 212°
2026-05-07 12:07 -6.20272 -63.96975 2547 ft 161 kts 212°
2026-05-07 12:07 -6.21233 -63.97554 2548 ft 161 kts 211°
2026-05-07 12:07 -6.22195 -63.98136 2547 ft 162 kts 212°
2026-05-07 12:08 -6.23163 -63.98716 2548 ft 163 kts 211°
2026-05-07 12:08 -6.24134 -63.99298 2548 ft 162 kts 211°
2026-05-07 12:08 -6.25102 -63.99881 2548 ft 162 kts 211°
2026-05-07 12:08 -6.26068 -64.00464 2548 ft 162 kts 212°
2026-05-07 12:09 -6.27038 -64.01048 2554 ft 163 kts 212°
2026-05-07 12:09 -6.28013 -64.01635 2551 ft 163 kts 211°
2026-05-07 12:09 -6.28984 -64.02224 2551 ft 162 kts 211°
2026-05-07 12:09 -6.29944 -64.02814 2548 ft 161 kts 211°
2026-05-07 12:10 -6.30902 -64.03399 2547 ft 161 kts 211°
2026-05-07 12:10 -6.31852 -64.03982 2553 ft 160 kts 211°
2026-05-07 12:10 -6.32804 -64.04568 2552 ft 160 kts 212°
2026-05-07 12:10 -6.33759 -64.05153 2548 ft 160 kts 212°
2026-05-07 12:11 -6.34710 -64.05738 2550 ft 161 kts 211°
2026-05-07 12:11 -6.35665 -64.06323 2550 ft 160 kts 211°
2026-05-07 12:11 -6.36622 -64.06906 2553 ft 162 kts 211°
2026-05-07 12:11 -6.37587 -64.07492 2555 ft 163 kts 211°
2026-05-07 12:12 -6.38558 -64.08081 2554 ft 163 kts 212°
2026-05-07 12:12 -6.39531 -64.08673 2554 ft 164 kts 212°
2026-05-07 12:12 -6.40510 -64.09262 2555 ft 164 kts 211°
2026-05-07 12:12 -6.41486 -64.09857 2557 ft 165 kts 212°
2026-05-07 12:13 -6.42454 -64.10441 2555 ft 164 kts 212°
2026-05-07 12:13 -6.43443 -64.11040 2552 ft 164 kts 212°
2026-05-07 12:13 -6.44414 -64.11634 2549 ft 163 kts 212°
2026-05-07 12:13 -6.45369 -64.12219 2545 ft 162 kts 212°
2026-05-07 12:14 -6.46343 -64.12814 2548 ft 162 kts 212°
2026-05-07 12:14 -6.47291 -64.13397 2546 ft 162 kts 211°
2026-05-07 12:14 -6.48252 -64.13987 2548 ft 162 kts 211°
2026-05-07 12:14 -6.49215 -64.14583 2548 ft 163 kts 212°
2026-05-07 12:15 -6.50181 -64.15176 2548 ft 162 kts 211°
2026-05-07 12:15 -6.51142 -64.15771 2548 ft 162 kts 211°
2026-05-07 12:15 -6.52108 -64.16362 2547 ft 163 kts 212°
2026-05-07 12:15 -6.53084 -64.16954 2548 ft 164 kts 212°
2026-05-07 12:16 -6.54062 -64.17542 2550 ft 164 kts 212°
2026-05-07 12:16 -6.55009 -64.18177 2550 ft 163 kts 216°
2026-05-07 12:16 -6.55943 -64.18828 2548 ft 163 kts 216°
2026-05-07 12:16 -6.56872 -64.19478 2548 ft 162 kts 216°
2026-05-07 12:17 -6.57799 -64.20129 2548 ft 163 kts 216°
2026-05-07 12:17 -6.58732 -64.20781 2548 ft 163 kts 216°
2026-05-07 12:17 -6.59648 -64.21424 2548 ft 163 kts 215°
2026-05-07 12:17 -6.60560 -64.22068 2547 ft 162 kts 216°
2026-05-07 12:18 -6.61486 -64.22720 2549 ft 163 kts 216°
2026-05-07 12:18 -6.62413 -64.23378 2547 ft 163 kts 216°
2026-05-07 12:18 -6.63327 -64.24024 2549 ft 163 kts 216°
2026-05-07 12:18 -6.64252 -64.24670 2552 ft 164 kts 215°
2026-05-07 12:19 -6.65186 -64.25327 2549 ft 163 kts 216°
2026-05-07 12:19 -6.66120 -64.25976 2549 ft 163 kts 216°
2026-05-07 12:19 -6.67053 -64.26625 2548 ft 163 kts 216°
2026-05-07 12:19 -6.67988 -64.27273 2553 ft 164 kts 216°
2026-05-07 12:20 -6.68917 -64.27918 2548 ft 164 kts 216°
2026-05-07 12:20 -6.69830 -64.28552 2549 ft 162 kts 216°
2026-05-07 12:20 -6.70753 -64.29197 2547 ft 161 kts 216°
2026-05-07 12:20 -6.71672 -64.29842 2547 ft 160 kts 216°
2026-05-07 12:21 -6.72596 -64.30496 2553 ft 161 kts 216°
2026-05-07 12:21 -6.73500 -64.31137 2553 ft 161 kts 216°
2026-05-07 12:21 -6.74413 -64.31786 2553 ft 160 kts 216°
2026-05-07 12:21 -6.75322 -64.32432 2548 ft 159 kts 215°
2026-05-07 12:22 -6.76228 -64.33075 2552 ft 160 kts 216°
2026-05-07 12:22 -6.77145 -64.33723 2552 ft 162 kts 216°
2026-05-07 12:22 -6.78073 -64.34376 2554 ft 163 kts 216°
2026-05-07 12:22 -6.79004 -64.35027 2553 ft 163 kts 216°
2026-05-07 12:23 -6.79619 -64.35457 2553 ft 162 kts 216°
2026-05-07 12:23 -6.80553 -64.36104 2555 ft 163 kts 216°
2026-05-07 12:23 -6.81489 -64.36759 2554 ft 165 kts 216°
2026-05-07 12:23 -6.82430 -64.37418 2554 ft 166 kts 216°
2026-05-07 12:24 -6.83377 -64.38076 2560 ft 165 kts 216°
2026-05-07 12:24 -6.84323 -64.38734 2558 ft 165 kts 216°
2026-05-07 12:24 -6.85265 -64.39389 2557 ft 164 kts 216°
2026-05-07 12:24 -6.86199 -64.40037 2556 ft 162 kts 216°
2026-05-07 12:25 -6.87127 -64.40681 2554 ft 163 kts 216°
2026-05-07 12:25 -6.88058 -64.41321 2554 ft 162 kts 216°
2026-05-07 12:25 -6.88986 -64.41964 2554 ft 162 kts 216°
2026-05-07 12:25 -6.89910 -64.42607 2552 ft 161 kts 216°
2026-05-07 12:26 -6.90831 -64.43247 2552 ft 161 kts 216°
2026-05-07 12:26 -6.91757 -64.43893 2555 ft 162 kts 216°
2026-05-07 12:26 -6.92698 -64.44523 2554 ft 163 kts 208°
2026-05-07 12:26 -6.93752 -64.44955 2553 ft 164 kts 201°
2026-05-07 12:27 -6.94822 -64.45350 2556 ft 164 kts 201°
2026-05-07 12:27 -6.95891 -64.45741 2554 ft 163 kts 201°
2026-05-07 12:27 -6.96955 -64.46134 2554 ft 163 kts 201°
2026-05-07 12:27 -6.98021 -64.46524 2555 ft 163 kts 201°
2026-05-07 12:28 -6.99086 -64.46922 2552 ft 162 kts 201°
2026-05-07 12:28 -7.00146 -64.47315 2554 ft 163 kts 201°
2026-05-07 12:28 -7.01206 -64.47711 2554 ft 162 kts 201°
2026-05-07 12:28 -7.02263 -64.48103 2550 ft 162 kts 200°
2026-05-07 12:29 -7.03319 -64.48499 2550 ft 163 kts 201°
2026-05-07 12:29 -7.04386 -64.48899 2551 ft 164 kts 201°
2026-05-07 12:29 -7.05452 -64.49302 2554 ft 164 kts 201°
2026-05-07 12:29 -7.06523 -64.49709 2555 ft 165 kts 200°
2026-05-07 12:30 -7.07601 -64.50113 2553 ft 164 kts 201°
2026-05-07 12:30 -7.08676 -64.50514 2554 ft 166 kts 201°
2026-05-07 12:30 -7.09750 -64.50928 2556 ft 165 kts 202°
2026-05-07 12:30 -7.10817 -64.51340 2556 ft 164 kts 201°
2026-05-07 12:31 -7.11883 -64.51758 2557 ft 164 kts 201°
2026-05-07 12:31 -7.12944 -64.52170 2554 ft 162 kts 202°
2026-05-07 12:31 -7.13814 -64.52827 2554 ft 157 kts 240°
2026-05-07 12:31 -7.14342 -64.53785 2551 ft 156 kts 245°
2026-05-07 12:32 -7.14852 -64.54753 2553 ft 157 kts 245°
2026-05-07 12:32 -7.15353 -64.55718 2555 ft 158 kts 245°
2026-05-07 12:32 -7.15856 -64.56704 2555 ft 159 kts 245°
2026-05-07 12:32 -7.16366 -64.57692 2552 ft 159 kts 245°
2026-05-07 12:33 -7.17384 -64.59678 2552 ft 160 kts 245°
2026-05-07 12:33 -7.17897 -64.60672 2556 ft 160 kts 244°
2026-05-07 12:33 -7.18408 -64.61678 2553 ft 162 kts 245°
2026-05-07 12:34 -7.18924 -64.62684 2560 ft 162 kts 245°
2026-05-07 12:34 -7.19439 -64.63685 2559 ft 160 kts 245°
2026-05-07 12:34 -7.19951 -64.64680 2561 ft 160 kts 246°
2026-05-07 12:34 -7.20474 -64.65675 2562 ft 161 kts 245°
2026-05-07 12:35 -7.20998 -64.66673 2560 ft 161 kts 245°
2026-05-07 12:35 -7.21517 -64.67676 2563 ft 162 kts 245°
2026-05-07 12:35 -7.22038 -64.68684 2557 ft 161 kts 246°
2026-05-07 12:35 -7.22561 -64.69677 2560 ft 160 kts 245°
2026-05-07 12:36 -7.23087 -64.70680 2467 ft 163 kts 244°
2026-05-07 12:36 -7.23604 -64.71676 2349 ft 158 kts 245°
2026-05-07 12:36 -7.24109 -64.72645 2222 ft 154 kts 244°
2026-05-07 12:36 -7.24599 -64.73591 2097 ft 151 kts 244°
2026-05-07 12:37 -7.25087 -64.74523 1974 ft 151 kts 245°
2026-05-07 12:37 -7.25574 -64.75455 1854 ft 150 kts 249°
2026-05-07 12:37 -7.25594 -64.76451 1732 ft 143 kts 298°
2026-05-07 12:37 -7.24874 -64.77048 1618 ft 135 kts 347°
2026-05-07 12:38 -7.23957 -64.76922 1563 ft 132 kts 17°
2026-05-07 12:38 -7.23118 -64.76597 1566 ft 127 kts 21°
2026-05-07 12:38 -7.22319 -64.76263 1552 ft 122 kts 21°
2026-05-07 12:38 -7.21546 -64.75943 1566 ft 119 kts 21°
2026-05-07 12:39 -7.20776 -64.75620 1555 ft 119 kts 21°
2026-05-07 12:39 -7.20023 -64.75306 1561 ft 119 kts 21°
2026-05-07 12:39 -7.19250 -64.74995 1551 ft 119 kts 12°
2026-05-07 12:39 -7.18510 -64.75235 1558 ft 118 kts 311°
2026-05-07 12:40 -7.18245 -64.76005 1568 ft 115 kts 288°
2026-05-07 12:40 -7.18269 -64.76794 1572 ft 119 kts 243°
2026-05-07 12:40 -7.18955 -64.77258 1568 ft 121 kts 202°
2026-05-07 12:40 -7.19770 -64.77305 1569 ft 118 kts 174°
2026-05-07 12:41 -7.20585 -64.77252 1564 ft 116 kts 177°
2026-05-07 12:41 -7.21389 -64.77215 1556 ft 116 kts 177°
2026-05-07 12:41 -7.22189 -64.77181 1478 ft 108 kts 177°
2026-05-07 12:41 -7.22500 -64.77170 1403 ft 105 kts 180°
2026-05-07 12:42 -7.22778 -64.77175 1299 ft 108 kts 182°
2026-05-07 12:42 -7.23536 -64.77185 1115 ft 108 kts 180°
2026-05-07 12:42 -7.24282 -64.77156 949 ft 106 kts 175°
2026-05-07 12:42 -7.25015 -64.77109 803 ft 105 kts 179°
2026-05-07 12:43 -7.25734 -64.77080 634 ft 102 kts 177°
2026-05-07 12:43 -7.26431 -64.77031 479 ft 100 kts 178°
2026-05-07 12:43 -7.27126 -64.76993 318 ft 100 kts 176°
2026-05-07 12:43 -7.27746 -64.76956 248 ft 70 kts 178°
2026-05-07 12:44 -7.28029 -64.76939 247 ft 24 kts 176°
2026-05-07 12:44 -7.28124 -64.76934 244 ft 8 kts 196°
2026-05-07 12:44 -7.28141 -64.76966 244 ft 0 kts 266°
2026-05-07 12:45 -7.28143 -64.76951 244 ft 7 kts 93°
2026-05-07 12:45 -7.28233 -64.76926 242 ft 20 kts 188°
2026-05-07 12:45 -7.28269 -64.77006 243 ft 12 kts 265°
2026-05-07 12:45 -7.28270 -64.77022 244 ft 0 kts 265°
2026-05-07 12:46 -7.28273 -64.77049 244 ft 7 kts 265°
2026-05-07 12:46 -7.28253 -64.77082 245 ft 1 kts 275°
2026-05-07 12:47 -7.28252 -64.77098 247 ft 0 kts 276°